Regional Weather Roundup
Issued by NWS

Home | Current Version | Previous Version | Text Only | Print | Product List | Glossary On
Versions: 1 2 3 4 5 6 7 8 9 10 11 12 13 14 15 16 17 18 19 20 21 22 23 24 25 26 27 28 29 30 31 32 33 34 35 36 37 38 39 40 41 42 43 44 45 46 47 48 49 50
000
ASCA44 KEWX 250220
RWRMX

LATIN AMERICA AND CARIBBEAN REGIONAL WEATHER ROUNDUP
NATIONAL WEATHER SERVICE AUSTIN/SAN ANTONIO TX
900 PM CDT FRI MAR 24 2017

NOTE: "FAIR" INDICATED FEW OR NO CLOUDS BELOW 12,000 FEET WITH NO
SIGNIFICANT WEATHER AND/OR OBSTRUCTIONS TO VISIBILITY.

BAJA CALIFORNIA

CITY           SKY/WX    TMP DP  RH WIND       PRES   REMARKS
LORETO         CLEAR     73  55  53 CALM      29.98S
LA PAZ         CLEAR     73  37  27 N7        30.01R
MEXICALI       CLEAR     75  39  27 SE6       30.04F
S.J. DEL CABO  CLEAR     73  43  33 NW12      29.98R
TIJUANA        CLEAR     61  48  63 CALM      30.18F

NORTHWESTERN MEXICO

CITY           SKY/WX    TMP DP  RH WIND       PRES   REMARKS
CULIACAN       CLEAR     75  57  53 SW5       29.92R
DURANGO        PTCLDY    72  -2   5 N6        30.17R
GUAYMAS        CLEAR     81  43  26 N12       29.94R
HERMOSILLO     CLEAR     81  41  24 S12       30.03R
CD. JUAREZ     CLEAR     68  28  22 W10G22    30.01R
LOS MOCHIS     CLEAR     72  52  49 NW17      29.96R
OBREGON          N/A    N/A N/A N/A MISG        N/A

NORTHEASTERN MEXICO

CITY           SKY/WX    TMP DP  RH WIND       PRES   REMARKS
CHIHUAHUA      CLEAR     64  10  12 E3        30.13R
MATAMOROS        N/A    N/A N/A N/A MISG        N/A
MONCLOVA         N/A    N/A N/A N/A MISG        N/A
MONTERREY      CLEAR     77  59  53 E5        29.92R
NUEVO LAREDO     N/A    N/A N/A N/A MISG        N/A
PIEDRAS NEGRAS   N/A    N/A N/A N/A MISG        N/A
REYNOSA        CLEAR     75  64  69 S16       29.93R
SALTILLO       CLEAR     73  52  46 NE9       30.15R
TORREON        CLEAR     79  10   7 N6        30.06R
CD. VICTORIA     N/A    N/A N/A N/A MISG        N/A

WESTERN MEXICO

CITY           SKY/WX    TMP DP  RH WIND       PRES   REMARKS
AGUASCALIENTES CLEAR     77  12   8 W5        30.14R
COLIMA         PTCLDY    73  66  78 W9        30.03
DEL BAJIO      PTCLDY    75  28  17 W5        30.18R
GUADALAJARA    PTCLDY    75  32  20 W8        30.09R
MANZANILLO     PTCLDY    79  73  83 W12       29.90R
MAZATLAN       PTCLDY    75  59  57 NW6       29.96R
P. VALLARTA    CLEAR     75  70  83 S7        29.92R
URUAPAN          N/A    N/A N/A N/A MISG        N/A
ZACATECAS      CLEAR     64  10  12 NE17      30.23R

CENTRAL MEXICO

CITY           SKY/WX    TMP DP  RH WIND       PRES   REMARKS
CUERNAVACA     MOCLDY    84  50  30 N2        30.00R
MEXICO CITY    LGT RAIN  68  43  40 NW12G23   30.30R
MORELIA        PTCLDY    61  54  77 CALM      30.17R
POZA RICA      CLEAR     75  70  83 E12       29.94R
PUEBLA         MOCLDY    66  43  42 S3        30.27R
QUERETARO      MOCLDY    77  41  27 NE12      30.21R
S. LUIS POTOSI PTCLDY    75  36  23 E16       30.13R
TAMPICO        MOCLDY    75  72  88 SE17      29.92R
TOLUCA         LGT RAIN  54  46  76 NW9       30.39R

SOUTHERN MEXICO

CITY           SKY/WX    TMP DP  RH WIND       PRES   REMARKS
ACAPULCO       PTCLDY    81  73  78 W6        29.89R
B. DE HUATULCO PTCLDY    79  68  69 W10       29.95R
OAXACA         PTCLDY    75  46  35 S15       30.12R
P. ESCONDIDO   PTCLDY    81  73  78 SW5       30.01R
VERACRUZ       CLEAR     77  70  78 SE5       29.89R
ZIHUATANEJO    CLEAR     82  73  74 W6        29.90R

YUCATAN PENINSULA

CITY           SKY/WX    TMP DP  RH WIND       PRES   REMARKS
CAMPECHE       CLEAR     88  50  27 E12       29.91R SMOKE
CANCUN         PTCLDY    77  68  73 E8        30.08R
CHETUMAL       PTCLDY    79  63  57 E12       30.02R
CD. DEL CARMEN PTCLDY    81  72  74 NE12      29.92R
COZUMEL        CLEAR     73  64  73 SE6       30.05R
MERIDA         CLEAR     84  52  32 E17       29.98R
MINATITLAN     CLEAR     79  68  69 N12       29.87R
TAPACHULA      PTCLDY    81  73  78 CALM      29.91R
TUX. GUTIERREZ MOCLDY    81  61  50 W20       29.93R
VILLAHERMOSA   CLEAR     77  61  57 E8        29.90R

CENTRAL AMERICA

CITY           SKY/WX    TMP DP  RH WIND       PRES   REMARKS
BELIZE CITY    PTCLDY    75  68  78 E5        30.01R
MANAGUA        PTCLDY    82  64  54 E14       29.89R

CARIBBEAN

CITY           SKY/WX    TMP DP  RH WIND       PRES   REMARKS
CURACAO        LGT RAIN  79  75  89 SE7       29.94R
KINGSTON       PTCLDY    81  68  65 NE3       29.94S
NASSAU         PTCLDY    73  63  68 NE17      30.22R
SAN JUAN       PTCLDY    75  75 100 SE3       29.98R
SANTO DOMINGO  PTCLDY    72  68  88 N8        29.97R
ST. CROIX      MOCLDY    77  73  88 E10       29.98R
ST. MAARTEN    PTCLDY    79  73  83 E12       29.97R
ST. THOMAS     CLOUDY    75  73  94 E9        29.97R

$$





USA.gov is the U.S. government's official web portal to all federal, state and local government web resources and services.